User: anonymous   Login
Location: Newark
(10.7761°N, 106.6983°E)
Time: 23:17:59
(UTC+00:00)
Language:

ISS - Orbit

View from above orbital plane
View from above orbital plane
View from above satellite
View from above satellite

Ground track
Ground track

The orbit data is extracted from the following two-line orbital elements,

1 25544U 98067A   20268.74436096  .00016717  00000-0  10270-3 0  9048
2 25544  51.6430 215.8325 0000565  70.4425 289.6786 15.48939435  7447
Epoch (UTC): 24 September 2020 17:51:52
Eccentricity: 0.0000565
inclination: 51.6430°
perigee height: 419 km
apogee height: 420 km
right ascension of ascending node: 215.8325°
argument of perigee: 70.4425°
revolutions per day: 15.48939435
mean anomaly at epoch: 289.6786°
orbit number at epoch: 744

The dashed part of the orbit path shows where the satellite is in the earth's shadow,  

DLR